Flag for Finland Weather past 2 weeks in Vantaa, Finland

Now
28 °F

Fog.


Feels Like: 28 °F
Forecast: 44 / 55 °F
Wind: 1 mph from North

Location: Helsinki-Vantaa

Current Time: Oct 2, 2014 at 6:04:23 AM

Latest Report: Oct 2, 2014 at 5:20 AM


Visibility: N/A

Pressure: 30.45 "Hg

Humidity: 100%

Dew point: 28 °F

Location of VantaaLocation

Historic Weather in Vantaa — Graph

°F

Vantaa temperature yesterday

Maximum temperature yesterday: 54 °F (at 3:20 PM)
Minimum temperature yesterday: 30 °F (at 6:20 AM)
Average temperature yesterday: 41 °F

Past Weeks' High & Low Weather Summary

 TemperatureHumidityPressure
High66 °F (Sep 19, 12:50 PM)100% (Sep 17, 4:20 AM)30.51 "Hg (Sep 17, 4:20 AM)
Low28 °F (Oct 2, 3:50 AM)42% (Sep 29, 2:50 PM)29.39 "Hg (Sep 27, 1:50 AM)
Average49 °F81%29.93 "Hg
* Reported Sep 17 4:20 AM — Oct 2 4:50 AM, Vantaa, Weather by CustomWeather, © 2014

Note: Actual official high and low records may vary slightly from our data, if they occured in-between our weather recording intervals... More about our weather records

Advertising

Vantaa weather history for previous 24 hours

 ConditionsComfort  
Time TempWeatherWind HumidityBarometerVisibility
4:50 AM
Oct 2
28 °FFog.1 mph100%30.45 "HgN/A
4:20 AM30 °FClear.1 mph93%30.45 "Hg10 mi
3:50 AM28 °FPassing clouds.1 mph100%30.45 "HgN/A
3:20 AM30 °FPassing clouds.1 mph93%30.45 "HgN/A
2:50 AM30 °FPassing clouds.1 mph100%30.45 "HgN/A
2:20 AM30 °FPassing clouds.1 mph93%30.48 "HgN/A
1:50 AM32 °FClear.1 mph93%30.48 "Hg10 mi
1:20 AM32 °FClear.No wind93%30.48 "Hg10 mi
12:50 AM32 °FClear.1 mph93%30.48 "Hg10 mi
12:20 AM36 °FClear.2 mph93%30.48 "Hg10 mi
11:50 PM
Oct 1
32 °FClear.1 mph100%30.48 "Hg10 mi
11:20 PM34 °FClear.No wind100%30.48 "Hg10 mi
10:50 PM36 °FClear.3 mph93%30.48 "Hg10 mi
10:20 PM36 °FClear.2 mph93%30.48 "Hg10 mi
9:50 PM36 °FClear.1 mph93%30.48 "Hg10 mi
9:20 PM39 °FClear.2 mph87%30.48 "Hg10 mi
8:50 PM41 °FClear.5 mph87%30.48 "Hg10 mi
8:20 PM41 °FClear.5 mph81%30.48 "Hg10 mi
7:50 PM43 °FScattered clouds.6 mph81%30.48 "HgN/A
7:20 PM46 °FPartly sunny.7 mph71%30.48 "HgN/A
6:50 PM48 °FSunny.8 mph62%30.48 "Hg10 mi
6:20 PM48 °FSunny.8 mph62%30.48 "Hg10 mi
5:50 PM50 °FPartly sunny.9 mph62%30.48 "HgN/A
5:20 PM50 °FPartly sunny.9 mph58%30.48 "HgN/A
4:50 PM52 °FPartly sunny.8 mph54%30.48 "HgN/A
4:20 PM52 °FPartly sunny.3 mph54%30.48 "HgN/A
3:50 PM52 °FPartly sunny.2 mph47%30.48 "HgN/A
3:20 PM54 °FPartly sunny.2 mph47%30.48 "HgN/A
2:50 PM52 °FPartly sunny.1 mph47%30.51 "HgN/A
2:20 PM52 °FPartly sunny.2 mph47%30.51 "HgN/A
1:50 PM52 °FPartly sunny.2 mph50%30.51 "HgN/A
1:20 PM50 °FPartly sunny.2 mph50%30.51 "HgN/A
12:50 PM50 °FPartly sunny.1 mph54%30.51 "HgN/A
12:20 PM50 °FScattered clouds.1 mph58%30.51 "HgN/A
11:50 AM48 °FSunny.1 mph62%30.51 "Hg10 mi
11:20 AM46 °FSunny.2 mph71%30.51 "Hg10 mi
10:50 AM45 °FSunny.2 mph81%30.51 "Hg10 mi
10:20 AM41 °FSunny.2 mph87%30.51 "Hg10 mi
9:50 AM39 °FSunny.3 mph87%30.51 "Hg10 mi
9:20 AM36 °FSunny.3 mph100%30.48 "Hg10 mi
8:50 AM32 °FPassing clouds.6 mph100%30.48 "HgN/A
8:20 AM32 °FFog.5 mph93%30.48 "HgN/A
7:50 AM30 °FFog.3 mph100%30.48 "HgN/A
7:20 AM30 °FFog.3 mph100%30.48 "HgN/A
6:50 AM32 °FFog.3 mph93%30.45 "HgN/A
6:20 AM30 °FClear.5 mph100%30.45 "Hg10 mi
Weather by CustomWeather, © 2014

See weather overviewHow to use our weather pages